| time (UTC) | temp C | wind direction | speed KPH | gust KPH | rain 1hr cm | rain 24hr cm | rain mn cm | humidity % | barometer mb |
| 20260504045817 | 6 | 242 | 0.0 | 0.0 | 0.00 | 0.00 | 0.00 | 68 | 1016.0 |
| 20260504044828 | 6 | 242 | 0.0 | 0.0 | 0.00 | 0.00 | 0.00 | 67 | 1015.9 |
| 20260504043819 | 6 | 242 | 0.0 | 0.0 | 0.00 | 0.00 | 0.00 | 70 | 1015.9 |
| 20260504042830 | 6 | 242 | 0.0 | 0.0 | 0.00 | 0.00 | 0.00 | 71 | 1015.8 |
| 20260504041822 | 6 | 242 | 0.0 | 0.0 | 0.00 | 0.00 | 0.00 | 69 | 1015.9 |
| 20260504040814 | 6 | 242 | 0.0 | 0.0 | 0.00 | 0.00 | 0.00 | 68 | 1015.8 |
| 20260504035816 | 7 | 242 | 0.0 | 0.0 | 0.00 | 0.00 | 0.00 | 67 | 1015.7 |
| 20260504034827 | 7 | 242 | 0.0 | 0.0 | 0.00 | 0.00 | 0.00 | 67 | 1015.6 |
| 20260504033819 | 7 | 242 | 0.0 | 0.0 | 0.00 | 0.00 | 0.00 | 66 | 1015.6 |
| 20260504032830 | 7 | 242 | 0.0 | 0.0 | 0.00 | 0.00 | 0.00 | 64 | 1015.5 |
| 20260504031841 | 7 | 242 | 0.0 | 0.0 | 0.00 | 0.00 | 0.00 | 66 | 1015.4 |
| 20260504030852 | 8 | 242 | 0.0 | 0.0 | 0.00 | 0.00 | 0.00 | 65 | 1015.3 |
| 20260504025816 | 8 | 242 | 0.0 | 0.0 | 0.00 | 0.00 | 0.00 | 62 | 1015.3 |
| 20260504024827 | 8 | 242 | 0.0 | 0.0 | 0.00 | 0.00 | 0.00 | 60 | 1015.3 |
| 20260504023836 | 9 | 242 | 0.0 | 0.0 | 0.00 | 0.00 | 0.00 | 58 | 1015.3 |
| 20260504022827 | 9 | 242 | 0.0 | 0.0 | 0.00 | 0.00 | 0.00 | 56 | 1015.2 |
| 20260504021819 | 10 | 242 | 0.0 | 0.0 | 0.00 | 0.00 | 0.00 | 55 | 1015.3 |
| 20260504020814 | 10 | 242 | 0.0 | 0.0 | 0.00 | 0.00 | 0.00 | 55 | 1015.3 |
| 20260504015819 | 10 | 242 | 0.0 | 0.0 | 0.00 | 0.00 | 0.00 | 52 | 1015.2 |
| 20260504014831 | 10 | 242 | 0.0 | 0.0 | 0.00 | 0.00 | 0.00 | 52 | 1015.2 |
| 20260504013822 | 10 | 242 | 0.0 | 0.0 | 0.00 | 0.00 | 0.00 | 52 | 1015.2 |
| 20260504012836 | 10 | 242 | 0.0 | 0.0 | 0.00 | 0.00 | 0.00 | 51 | 1015.1 |
| 20260504011830 | 11 | 242 | 0.0 | 0.0 | 0.00 | 0.00 | 0.00 | 51 | 1014.9 |
| 20260504010842 | 11 | 242 | 0.0 | 0.0 | 0.00 | 0.00 | 0.00 | 52 | 1014.8 |
| 20260504005827 | 11 | 242 | 0.0 | 0.0 | 0.00 | 0.00 | 0.00 | 51 | 1014.8 |
| 20260504004818 | 11 | 242 | 0.0 | 0.0 | 0.00 | 0.00 | 0.00 | 50 | 1014.8 |
| 20260504003831 | 11 | 242 | 0.0 | 0.0 | 0.00 | 0.00 | 0.00 | 48 | 1014.7 |
| 20260504002814 | 12 | 242 | 0.0 | 0.0 | 0.00 | 0.00 | 0.00 | 48 | 1014.5 |
| 20260504001838 | 12 | 242 | 0.0 | 0.0 | 0.00 | 0.00 | 0.00 | 47 | 1014.4 |
| 20260504000828 | 12 | 242 | 0.0 | 0.0 | 0.00 | 0.00 | 0.00 | 46 | 1014.4 |
| 20260503235834 | 13 | 242 | 0.0 | 6.4 | 0.00 | 0.00 | 0.00 | 44 | 1014.3 |
| 20260503234827 | 13 | 360 | 0.0 | 4.8 | 0.00 | 0.00 | 0.00 | 44 | 1014.3 |
| 20260503233838 | 13 | 65 | 0.0 | 0.0 | 0.00 | 0.00 | 0.00 | 43 | 1014.1 |
| 20260503232822 | 13 | 65 | 0.0 | 6.4 | 0.00 | 0.00 | 0.00 | 41 | 1013.9 |
| 20260503231814 | 14 | 33 | 3.2 | 9.7 | 0.00 | 0.00 | 0.00 | 41 | 1013.9 |
| 20260503230824 | 14 | 47 | 4.8 | 9.7 | 0.00 | 0.00 | 0.00 | 41 | 1013.9 |
| 20260503225852 | 15 | 13 | 3.2 | 8.0 | 0.00 | 0.00 | 0.00 | 42 | 1014.0 |
| 20260503224813 | 15 | 169 | 4.8 | 11.3 | 0.00 | 0.00 | 0.00 | 42 | 1014.0 |
| 20260503223837 | 15 | 105 | 3.2 | 12.9 | 0.00 | 0.00 | 0.00 | 39 | 1014.0 |
| 20260503222818 | 15 | 350 | 3.2 | 12.9 | 0.00 | 0.00 | 0.00 | 41 | 1014.0 |
| 20260503221831 | 15 | 355 | 6.4 | 19.3 | 0.00 | 0.00 | 0.00 | 40 | 1014.0 |
| 20260503220823 | 15 | 130 | 4.8 | 16.1 | 0.00 | 0.00 | 0.00 | 38 | 1014.0 |
| 20260503215829 | 15 | 65 | 4.8 | 14.5 | 0.00 | 0.00 | 0.00 | 40 | 1014.1 |
| 20260503214822 | 15 | 13 | 4.8 | 19.3 | 0.00 | 0.00 | 0.00 | 41 | 1014.0 |
| 20260503213813 | 15 | 22 | 8.0 | 20.9 | 0.00 | 0.00 | 0.00 | 39 | 1014.0 |
| 20260503212827 | 15 | 46 | 9.7 | 20.9 | 0.00 | 0.00 | 0.00 | 41 | 1013.8 |
| 20260503211819 | 14 | 74 | 8.0 | 27.4 | 0.00 | 0.00 | 0.00 | 40 | 1013.8 |
| 20260503210831 | 14 | 11 | 8.0 | 25.7 | 0.00 | 0.00 | 0.00 | 39 | 1013.9 |
| 20260503205822 | 15 | 40 | 9.7 | 25.7 | 0.00 | 0.00 | 0.00 | 40 | 1014.0 |
| 20260503204837 | 15 | 24 | 8.0 | 22.5 | 0.00 | 0.00 | 0.00 | 40 | 1013.8 |
| 20260503203819 | 15 | 5 | 9.7 | 20.9 | 0.00 | 0.00 | 0.00 | 39 | 1013.9 |
| 20260503202830 | 14 | 57 | 11.3 | 35.4 | 0.00 | 0.00 | 0.00 | 39 | 1013.9 |
| 20260503201822 | 14 | 28 | 14.5 | 27.4 | 0.00 | 0.00 | 0.00 | 38 | 1014.0 |
| 20260503200814 | 14 | 48 | 6.4 | 16.1 | 0.00 | 0.00 | 0.00 | 39 | 1014.2 |
| 20260503195820 | 14 | 141 | 8.0 | 14.5 | 0.00 | 0.00 | 0.00 | 39 | 1014.2 |
| 20260503194832 | 14 | 165 | 6.4 | 17.7 | 0.00 | 0.00 | 0.00 | 39 | 1014.5 |
| 20260503193823 | 14 | 34 | 6.4 | 19.3 | 0.00 | 0.00 | 0.00 | 41 | 1014.5 |
| 20260503192815 | 14 | 18 | 9.7 | 17.7 | 0.00 | 0.00 | 0.00 | 43 | 1014.6 |
| 20260503191847 | 14 | 126 | 4.8 | 20.9 | 0.00 | 0.00 | 0.00 | 43 | 1014.6 |
| 20260503190816 | 13 | 339 | 11.3 | 25.7 | 0.00 | 0.00 | 0.00 | 45 | 1014.7 |
| 20260503185815 | 13 | 360 | 12.9 | 30.6 | 0.00 | 0.00 | 0.00 | 41 | 1014.8 |
| 20260503184826 | 13 | 26 | 4.8 | 20.9 | 0.00 | 0.00 | 0.00 | 43 | 1014.9 |
| 20260503183815 | 13 | 69 | 8.0 | 22.5 | 0.00 | 0.00 | 0.00 | 42 | 1015.2 |
| 20260503182827 | 12 | 286 | 4.8 | 19.3 | 0.00 | 0.00 | 0.00 | 45 | 1015.1 |
| 20260503181821 | 12 | 17 | 11.3 | 29.0 | 0.00 | 0.00 | 0.00 | 44 | 1015.4 |
| 20260503180834 | 12 | 55 | 8.0 | 17.7 | 0.00 | 0.00 | 0.00 | 44 | 1015.2 |
| 20260503175837 | 12 | 51 | 4.8 | 14.5 | 0.00 | 0.00 | 0.00 | 48 | 1015.2 |
| 20260503174827 | 11 | 23 | 8.0 | 19.3 | 0.00 | 0.00 | 0.00 | 46 | 1015.3 |
| 20260503173820 | 11 | 55 | 6.4 | 22.5 | 0.00 | 0.00 | 0.00 | 45 | 1015.6 |
| 20260503172831 | 11 | 338 | 8.0 | 30.6 | 0.00 | 0.00 | 0.00 | 44 | 1015.6 |
| 20260503171814 | 11 | 33 | 12.9 | 25.7 | 0.00 | 0.00 | 0.00 | 46 | 1015.6 |
| 20260503170836 | 11 | 348 | 12.9 | 22.5 | 0.00 | 0.00 | 0.00 | 45 | 1015.7 |
| 20260503150817 | 8 | 66 | 6.4 | 24.1 | 0.00 | 0.00 | 0.00 | 52 | 1016.2 |
| 20260503130843 | 6 | 35 | 12.9 | 24.1 | 0.00 | 0.00 | 0.00 | 64 | 1016.3 |
| 20260503080821 | 5 | 34 | 3.2 | 8.0 | 0.00 | 0.00 | 0.00 | 73 | 1013.5 |
| 20260503072823 | 5 | 346 | 4.8 | 12.9 | 0.00 | 0.00 | 0.00 | 72 | 1013.3 |
| 20260503071859 | 5 | 329 | 8.0 | 14.5 | 0.00 | 0.00 | 0.00 | 72 | 1013.1 |
| 20260503070850 | 5 | 5 | 6.4 | 19.3 | 0.00 | 0.00 | 0.00 | 73 | 1013.1 |
| 20260503054828 | 5 | 34 | 4.8 | 11.3 | 0.00 | 0.03 | 0.00 | 76 | 1013.1 |
| 20260503053842 | 5 | 360 | 3.2 | 6.4 | 0.00 | 0.03 | 0.00 | 76 | 1013.2 |